[[{"header":{"parameterUnit":"m.s-1","parameterCategory":1,"la1":30.2991,"la2":30.254,"lo1":-89.0895,"lo2":-89.0444,"dy":0.0017,"dx":0.0017,"nx":28,"ny":28,"refTime":"2026-01-05T03:00:00:Z","depth":0,"parameterNumber":2,"parameterNumberName":"U-component_of_WINDS"},"data":[0,0,0,0,0,0,0,0,0,0,0,0,0,0,0,0,0,0,0,0,0,0,0,0,0,0,0,0,0,0,0,0,0,0,0,0,0,0,0,0,0,0,0,0,0,0,0,0,0,0,0,0,0,0,0,0,0,0,0.2596,0.2597,0,0.2616,0.2616,0.2616,0.2634,0.2634,0.2634,0.2635,0.2655,0.2655,0.2656,0,0,0,0,0,0,0,0,0,0,0,0,0,0.2575,0.2575,0.2596,0.2597,0.2597,0.2616,0.2616,0.2617,0.2634,0.2634,0.2634,0.2635,0.2655,0.2655,0.2656,0,0,0,0,0,0,0,0,0,0,0,0,0,0.2588,0.2575,0.2596,0.2608,0.2609,0.2616,0.2616,0.2617,0.2634,0.2634,0.2634,0.2635,0.2655,0.2655,0.2656,0.2653,0,0,0.2657,0.2658,0,0,0,0,0,0,0,0,0.2588,0.2589,0.2606,0.2607,0.2608,0.2623,0.2616,0.2629,0.2634,0.2624,0.2635,0.2635,0.2644,0.2646,0.2649,0.2654,0.2655,0.2657,0.2658,0.2658,0.2658,0,0,0,0,0,0,0,0.2587,0.2588,0.2604,0.2606,0.2608,0.2612,0.2615,0.2619,0.2632,0.2625,0.2627,0.2629,0.2645,0.2648,0.2649,0.2655,0.2657,0.2658,0.2658,0.2658,0.2661,0.2661,0,0,0,0,0,0,0.2584,0.2587,0.2603,0.2605,0.2599,0.2613,0.2615,0.2618,0.2632,0.2635,0.2628,0.2629,0.2647,0.2649,0.265,0.2649,0.2658,0.2659,0.2659,0.2661,0.2661,0.2661,0,0,0,0,0,0,0.2583,0.2585,0.2603,0.2596,0.2599,0.2613,0.2616,0.2618,0.2621,0.2635,0.2637,0.2629,0.2647,0.2649,0.2653,0.265,0.2659,0.2659,0.2662,0.2661,0.2661,0.2646,0,0,0,0,0,0,0.2583,0.2585,0.2583,0.2596,0.2599,0.2604,0.2615,0.2618,0.2622,0.2624,0.2636,0.2638,0.2648,0.2652,0.2653,0.2651,0.266,0.2662,0.2661,0.2661,0.2646,0.2645,0.2643,0,0,0,0,0,0.2582,0.2578,0.2583,0.2585,0.2598,0.2604,0.2606,0.2617,0.2622,0.2621,0.263,0.2638,0.265,0.2652,0.2654,0.2651,0.2662,0.2662,0.2661,0.2647,0.2645,0.2643,0,0,0,0,0,0,0.2564,0.258,0.2586,0.2586,0.2594,0.2607,0.2606,0.2614,0.262,0.2621,0.2635,0.2637,0.2639,0.2646,0.2648,0.265,0.2657,0.2657,0.2646,0.2644,0.2643,0.2641,0.266,0,0,0,0,0,0.256,0.2564,0.2578,0.2577,0.258,0.2593,0.2596,0.2603,0.2612,0.2615,0.2624,0.2632,0.2638,0.2641,0.2647,0.2647,0.2651,0.2647,0.2645,0.2644,0.2644,0.2646,0.2644,0.2659,0.2659,0.2659,0,0,0.2553,0.2562,0.2563,0.2573,0.258,0.2584,0.2595,0.2598,0.2602,0.2616,0.262,0.2627,0.2637,0.2639,0.264,0.2644,0.2641,0.2643,0.2642,0.2643,0.2645,0.2644,0.2642,0.2659,0.2659,0.2659,0,0,0.254,0.2547,0.2548,0.2555,0.2565,0.2573,0.2574,0.2586,0.2591,0.2595,0.2606,0.2611,0.262,0.2627,0.2632,0.2624,0.2632,0.2625,0.2617,0.2619,0.2618,0.2617,0.2615,0.2614,0.2625,0.2625,0.2625,0,0.2529,0.2535,0.2547,0.255,0.2555,0.2568,0.2569,0.2575,0.2587,0.259,0.2594,0.2607,0.2615,0.2619,0.2617,0.2621,0.2622,0.2624,0.2617,0.2616,0.2616,0.2614,0.2613,0.2624,0.2624,0.2624,0.2624,0,0.2522,0.2526,0.2525,0.2537,0.2541,0.2543,0.2556,0.2559,0.2567,0.2575,0.258,0.259,0.2598,0.26,0.2607,0.2606,0.2608,0.2615,0.2622,0.2613,0.2612,0.2611,0.2623,0.2623,0.2624,0.2624,0,0,0.2499,0.2517,0.2517,0.2523,0.2536,0.2539,0.2543,0.2551,0.2554,0.2562,0.2566,0.2574,0.258,0.2586,0.2594,0.2596,0.259,0.2602,0.2602,0.26,0.2591,0.2586,0.2585,0.2595,0.2595,0.2595,0.259,0,0.249,0.2496,0.2507,0.251,0.2514,0.2527,0.253,0.2539,0.2547,0.2553,0.2562,0.2568,0.2575,0.2579,0.2581,0.259,0.2588,0.2591,0.26,0.26,0.2597,0.2584,0.258,0.2574,0.259,0.259,0.2589,0,0.2479,0.2487,0.249,0.2504,0.2506,0.2509,0.2518,0.2523,0.2534,0.2539,0.2546,0.2555,0.256,0.2567,0.2574,0.2576,0.258,0.2586,0.2586,0.2587,0.2594,0.2586,0.2573,0.2572,0.2589,0.2589,0.2589,0,0.2463,0.2474,0.2478,0.2483,0.2498,0.25,0.2507,0.2517,0.2522,0.2531,0.2534,0.2543,0.2548,0.2555,0.2567,0.257,0.2574,0.2581,0.2579,0.2579,0.2579,0.2579,0.2567,0.2581,0.2581,0.2581,0.2581,0,0.2452,0.2454,0.2471,0.2474,0.2476,0.2489,0.2492,0.25,0.251,0.2514,0.2526,0.2531,0.2546,0.2552,0.2561,0.2567,0.2569,0.2574,0.2577,0.2573,0.2573,0.2577,0.2577,0.2581,0.2581,0.2581,0.2581,0,0.2435,0.2446,0.2451,0.2466,0.247,0.2472,0.2485,0.2488,0.2497,0.2503,0.2505,0.252,0.2528,0.254,0.2552,0.2558,0.2562,0.2566,0.2559,0.256,0.2558,0.2559,0.2548,0.2548,0.2562,0.2562,0.2562,0,0.2427,0.2429,0.2444,0.2448,0.2454,0.246,0.2466,0.2479,0.2484,0.2497,0.2499,0.2508,0.2516,0.2528,0.254,0.255,0.2554,0.255,0.2556,0.2553,0.2555,0.2555,0.2556,0.2549,0.2548,0.2548,0.2548,0,0.2412,0.2418,0.2425,0.2435,0.2441,0.2449,0.2457,0.246,0.2475,0.2481,0.2489,0.2495,0.2508,0.2517,0.2528,0.2536,0.2545,0.2546,0.2547,0.2543,0.2539,0.2542,0.2556,0.2546,0.2547,0.2547,0.2547,0.2547,0.24,0.2403,0.2414,0.2422,0.243,0.2438,0.2442,0.2452,0.2459,0.247,0.2478,0.2486,0.2498,0.2514,0.2521,0.2528,0.2532,0.2532,0.2533,0.2533,0.2532,0.2538,0.253,0.2531,0.2531,0.2531,0.2531,0,0.2387,0.2395,0.2402,0.2414,0.242,0.2428,0.2438,0.2443,0.2451,0.2461,0.2469,0.2479,0.2488,0.2501,0.2512,0.2515,0.2519,0.2517,0.2517,0.2519,0.2527,0.2526,0.2514,0.2514,0.2514,0.2514,0.2514,0.2514,0.2381,0.2386,0.2393,0.2403,0.2411,0.242,0.2425,0.2433,0.2441,0.2452,0.246,0.2468,0.248,0.2492,0.2501,0.2504,0.2508,0.2505,0.251,0.2517,0.2519,0.252,0.2519,0.2505,0.2505,0.2501,0.2501,0.2501]},{"header":{"parameterUnit":"m.s-1","parameterCategory":1,"la1":30.2991,"la2":30.254,"lo1":-89.0895,"lo2":-89.0444,"dy":0.0017,"dx":0.0017,"nx":28,"ny":28,"refTime":"2026-01-05T03:00:00:Z","depth":0,"parameterNumber":3,"parameterNumberName":"V-component_of_WINDS"},"data":[0,0,0,0,0,0,0,0,0,0,0,0,0,0,0,0,0,0,0,0,0,0,0,0,0,0,0,0,0,0,0,0,0,0,0,0,0,0,0,0,0,0,0,0,0,0,0,0,0,0,0,0,0,0,0,0,0,0,1.7843,1.7844,0,1.7892,1.7892,1.7893,1.7931,1.7931,1.7931,1.7932,1.7982,1.7983,1.7984,0,0,0,0,0,0,0,0,0,0,0,0,0,1.7786,1.7787,1.7843,1.7844,1.7844,1.7892,1.7892,1.7893,1.7931,1.7931,1.7932,1.7932,1.7982,1.7983,1.7984,0,0,0,0,0,0,0,0,0,0,0,0,0,1.782,1.7787,1.7843,1.7869,1.7872,1.7892,1.7892,1.7893,1.7931,1.7931,1.7932,1.7932,1.7981,1.7983,1.7984,1.7983,0,0,1.7989,1.799,0,0,0,0,0,0,0,0,1.7818,1.7822,1.7864,1.7867,1.787,1.7906,1.7891,1.7923,1.793,1.7908,1.7932,1.7932,1.7956,1.796,1.7968,1.7985,1.7987,1.7989,1.799,1.7991,1.7991,0,0,0,0,0,0,0,1.7816,1.782,1.7862,1.7865,1.7868,1.7879,1.7884,1.7897,1.7929,1.791,1.7913,1.7918,1.7958,1.7966,1.7969,1.7988,1.7989,1.799,1.7991,1.7992,1.8011,1.8011,0,0,0,0,0,0,1.7809,1.7818,1.7861,1.7864,1.7845,1.788,1.7886,1.7894,1.7929,1.7934,1.7918,1.792,1.7963,1.7968,1.7971,1.7974,1.7991,1.7992,1.7993,1.8012,1.8011,1.8011,0,0,0,0,0,0,1.7808,1.7813,1.7859,1.7842,1.7849,1.788,1.7889,1.7894,1.7903,1.7934,1.794,1.792,1.7964,1.7969,1.7981,1.7977,1.7993,1.7994,1.8012,1.8011,1.8011,1.7979,0,0,0,0,0,0,1.7806,1.7812,1.781,1.7841,1.7849,1.7866,1.7888,1.7895,1.7905,1.7908,1.7938,1.7944,1.7965,1.7978,1.7982,1.7979,1.7995,1.8013,1.8012,1.8011,1.798,1.7977,1.7974,0,0,0,0,0,1.7804,1.7799,1.781,1.7815,1.7848,1.7866,1.787,1.7895,1.7905,1.7904,1.7926,1.7943,1.7976,1.7979,1.7984,1.7981,1.8013,1.8012,1.8011,1.7982,1.7978,1.7974,0,0,0,0,0,0,1.7765,1.7803,1.7816,1.7821,1.784,1.7872,1.7872,1.7889,1.7906,1.7908,1.7938,1.7944,1.7953,1.7968,1.7971,1.7984,1.7997,1.7997,1.7973,1.797,1.7967,1.7963,1.7997,0,0,0,0,0,1.7758,1.7768,1.7801,1.7802,1.7811,1.784,1.7848,1.7866,1.7887,1.7895,1.7917,1.7937,1.7953,1.7962,1.7978,1.7983,1.7992,1.7984,1.7981,1.7978,1.7978,1.7985,1.7983,1.8008,1.8008,1.8008,0,0,1.7741,1.7763,1.7768,1.7795,1.7812,1.7823,1.7846,1.7857,1.7866,1.7897,1.7909,1.7926,1.7951,1.7961,1.7966,1.7973,1.7973,1.7977,1.7975,1.7976,1.7984,1.7982,1.798,1.8007,1.8007,1.8007,0,0,1.7718,1.7735,1.7739,1.7756,1.7782,1.7802,1.7803,1.7833,1.7846,1.7859,1.7884,1.7896,1.7921,1.7939,1.7951,1.7939,1.7957,1.7944,1.7928,1.7935,1.7933,1.7931,1.7929,1.7928,1.7943,1.7943,1.7943,0,1.7694,1.7712,1.7739,1.7749,1.7761,1.7791,1.7797,1.7812,1.7841,1.785,1.7858,1.7893,1.7912,1.7927,1.7925,1.7933,1.7937,1.794,1.7931,1.793,1.7929,1.7927,1.7926,1.7942,1.7942,1.7942,1.7942,0,1.7683,1.7695,1.7696,1.7725,1.7737,1.7745,1.7775,1.7784,1.7802,1.7822,1.7837,1.7861,1.7884,1.7889,1.7905,1.7908,1.7912,1.7925,1.7939,1.7924,1.7923,1.7922,1.7939,1.794,1.794,1.7941,0,0,1.7634,1.7681,1.7681,1.7696,1.7728,1.7739,1.7749,1.7772,1.7781,1.7801,1.7812,1.7835,1.7849,1.7863,1.7882,1.7888,1.788,1.7901,1.7902,1.7897,1.7887,1.7877,1.7876,1.7892,1.7892,1.7892,1.7886,0,1.7617,1.7637,1.7663,1.7675,1.7688,1.7718,1.7728,1.775,1.777,1.7785,1.7807,1.7823,1.7839,1.7848,1.7856,1.7879,1.7878,1.788,1.7904,1.7904,1.7897,1.7875,1.7864,1.7856,1.7885,1.7885,1.7885,0,1.7599,1.7619,1.7632,1.7667,1.7673,1.7681,1.7706,1.772,1.7746,1.7761,1.7778,1.78,1.7815,1.7828,1.785,1.7851,1.7863,1.7876,1.7877,1.788,1.7894,1.7879,1.7854,1.7853,1.7884,1.7884,1.7884,0,1.7565,1.7595,1.7607,1.7619,1.7659,1.7665,1.7682,1.7709,1.7722,1.7744,1.7754,1.7777,1.779,1.7809,1.7837,1.7844,1.7858,1.7872,1.7871,1.7871,1.7872,1.7872,1.785,1.7879,1.7879,1.7879,1.7879,0,1.7543,1.755,1.7593,1.7601,1.7611,1.7642,1.7652,1.7672,1.7696,1.771,1.7738,1.775,1.7786,1.7804,1.7826,1.7843,1.7848,1.7861,1.7867,1.7859,1.7858,1.7867,1.7869,1.7879,1.7879,1.7879,1.7879,0,1.7506,1.7534,1.7551,1.7588,1.7598,1.7604,1.7637,1.7646,1.7669,1.7686,1.7692,1.7727,1.775,1.778,1.7811,1.7827,1.7841,1.785,1.7832,1.7836,1.7833,1.7834,1.7818,1.7818,1.7845,1.7845,1.7844,0,1.749,1.7497,1.7535,1.7547,1.7563,1.758,1.7595,1.7627,1.7641,1.7674,1.768,1.7705,1.7726,1.7761,1.779,1.7815,1.7826,1.7819,1.783,1.7822,1.7828,1.7827,1.7829,1.7816,1.7815,1.7815,1.7815,0,1.746,1.7475,1.7494,1.7519,1.7535,1.7557,1.7579,1.7587,1.7625,1.7639,1.7663,1.768,1.7713,1.7738,1.7768,1.7787,1.7808,1.7811,1.7813,1.7804,1.7794,1.7801,1.7825,1.7811,1.7812,1.7812,1.7812,1.7812,1.7434,1.7443,1.7472,1.7494,1.7514,1.7536,1.7548,1.7573,1.7593,1.7622,1.7641,1.7664,1.7694,1.7736,1.7755,1.7775,1.7783,1.7784,1.7785,1.7785,1.7783,1.7791,1.778,1.778,1.778,1.7781,1.7781,0,1.7407,1.7428,1.7448,1.7479,1.7497,1.7515,1.7542,1.7556,1.7576,1.7602,1.7624,1.7652,1.7677,1.771,1.7738,1.7748,1.7758,1.7754,1.7754,1.7759,1.7773,1.777,1.7745,1.7745,1.7745,1.7745,1.7745,1.7745,1.7395,1.7411,1.743,1.7458,1.7479,1.7502,1.7516,1.7537,1.7559,1.7589,1.761,1.7632,1.7661,1.7692,1.7717,1.7726,1.7736,1.7729,1.7741,1.7754,1.7757,1.776,1.7757,1.7731,1.7731,1.7725,1.7725,1.7725]}]]